SCP
0 0 0 0 0 0 0 0 0 0 0 0 0 0 0 0 0 0 0 0 0 0 0 0 0 0 0 0 0 0 0 0 0 0 0 0 0 0 0 0 0 0 0
0 0 0 0 0 0 0 0 0 0 0 0 0 0 0 0 0 0 0 0 0 0 0 0 0 0 0 0 0 0 0 0 0 0 0 0 0 0 0 0 0 0 0
0 0 0 0 0 0 0 0 0 0 0 0 0 0 0 0 0 0 0 0 0 0 0 0 0 0 0 0 0 0 0 0 0 0 0 0 0 0 0 0 0 0 0
0 0 0 0 0 0 0 0 0 0 0 0 0 0 0 0 0 0 0 0 0 0 0 0 0 0 0 0 0 0 0 0 0 0 0 0 0 0 0 0 0 0 0
0 0 0 0 0 0 0 0 0 0 0 0 0 0 0 0 0 0 0 0 0 0 0 0 0 0 0 0 0 0 0 0 0 0 0 0 0 0 0 0 0 0 0
0 0 0 0 0 0 0 0 0 0 0 0 0 0 0 0 0 0 0 0 0 0 0 0 0 0 0 0 0 0 0 0 0 0 0 0 0 0 0 0 0 0 0
0 0 0 0 0 0 0 0 0 0 0 0 0 0 0 0 0 0 0 0 0 0 0 0 0 0 0 0 0 0 0 0 0 0 0 0 0 0 0 0 0 0 0
0 0 0 0 0 0 0 0 0 0 0 0 0 0 0 0 0 0 0 0 0 0 0 0 0 0 0 0 0 0 0 0 0 0 0 0 0 0 0 0 0 0 0
0 0 0 0 0 0 0 0 0 0 0 0 0 0 0 0 0 0 0 0 0 0 0 0 0 0 0 0 0 0 0 0 0 0 0 0 0 0 0 0 0 0 0
0 0 0 0 0 0 0 0 0 0 0 0 0 0 0 0 0 0 0 0 0 0 0 0 0 0 0 0 0 0 0 0 0 0 0 0 0 0 0 0 0 0 0
0 0 0 0 0 0 0 0 0 0 0 0 0 0 0 0 0 0 0 0 0 0 0 0 0 0 0 0 0 0 0 0 0 0 0 0 0 0 0 0 0 0 0
0 0 0 0 0 0 0 0 0 0 0 0 0 0 0 0 0 0 0 0 0 0 0 0 0 0 0 0 0 0 0 0 0 0 0 0 0 0 0 0 0 0 0
0 0 0 0 0 0 0 0 0 0 0 0 0 0 0 0 0 0 0 0 0 0 0 0 0 0 0 0 0 0 0 0 0 0 0 0 0 0 0 0 0 0 0
0 0 0 0 0 0 0 0 0 0 0 0 0 0 0 0 0 0 0 0 0 0 0 0 0 0 0 0 0 0 0 0 0 0 0 0 0 0 0 0 0 0 0
-0 0 -0 -0 0 0 0 0 0 0 0 0 0 0 0 0 0 0 0 0 0 0 0 0 0 0 0 0 0 0 0 0 0 0 0 0 0 0 0 0 0 0 0
0 0 0 0 0 0 0 0 0 0 0 0 0 0 0 0 0 0 0 0 0 0 0 0 0 0 0 0 0 0 0 0 0 0 0 0 0 0 0 0 0 0 0
0 0 0 0 0 0 0 0 0 0 0 0 0 0 0 0 0 0 0 0 0 0 0 0 0 0 0 0 0 0 0 0 0 0 0 0 0 0 0 0 -0 0 0
0 0 0 0 0 0 0 0 0 0 0 0 0 0 0 0 0 0 0 0 0 0 0 0 0 0 0 0 0 0 0 0 0 0 0 0 0 0 0 0 0 0 0
0 0 0 0 0 0 0 0 0 0 0 0 0 0 0 0 0 0 0 0 0 0 0 0 0 0 0 0 0 0 0 0 0 0 0 0 0 0 0 0 0 0 0
0 0 0 0 0 0 0 0 0 0 0 0 0 0 0 0 0 0 0 0 0 0 0 0 0 0 0 0 0 0 0 0 0 0 0 0 0 0 0 0 0 0 0
0 0 0 0 0 0 0 0 0 0 0 0 0 0 0 0 0 0 0 0 0 0 0 0 0 0 0 0 0 0 0 0 0 0 0 0 0 0 0 0 0 0 0
0 0 0 0 0 0 0 0 0 0 0 0 0 0 0 0 0 0 0 0 0 0 0 0 0 0 0 0 0 0 0 0 0 0 0 0 0 0 0 0 0 0 0
0 0 0 0 0 0 0 0 0 0 0 0 0 0 0 0 0 0 0 0 0 0 0 0 0 0 0 0 0 0 0 0 0 0 0 0 0 0 0 0 0 0 0
0 0 0 0 0 0 0 0 0 0 0 0 0 0 0 0 0 0 0 0 0 0 0 0 0 0 0 0 0 0 0 0 0 0 0 0 0 0 0 0 0 0 0
0 0 0 0 0 0 0 0 0 0 0 0 0 0 0 0 0 0 0 0 0 0 0 0 0 0 0 0 0 0 0 0 0 0 0 0 0 0 0 0 0 0 0
0 0 0 0 0 0 0 0 0 0 0 0 0 0 0 0 0 0 0 0 0 0 0 0 0 0 0 0 0 0 0 0 0 0 0 0 0 0 0 0 0 0 0
Wind_Speed_500mb
53 49 53 61 67 68 72 74 76 78 77 80 80 79 78 78 80 79 80 79 76 70 69 68 63 63 66 62 55 49 48 44 45 44 40 35 34 31 29 27 24 22 18
53 53 51 60 66 72 76 78 80 80 81 82 80 77 76 79 80 75 78 80 86 80 76 78 74 70 67 76 58 61 60 56 51 52 45 28 29 35 35 33 30 26 22
60 50 54 65 69 73 77 77 81 84 83 81 79 76 75 76 81 81 78 82 86 86 82 81 77 75 71 86 56 60 66 58 59 62 39 21 20 39 39 38 34 30 27
46 44 51 58 69 76 77 77 79 85 85 83 85 86 85 82 79 78 77 78 83 87 91 84 80 81 75 78 67 67 75 72 71 70 67 38 32 24 22 41 40 37 32
35 34 38 48 61 61 65 70 78 81 83 87 87 87 88 82 74 73 75 78 79 85 84 84 89 83 86 70 81 73 88 82 76 73 79 59 39 28 22 24 42 45 39
18 21 26 35 44 48 53 58 68 76 80 84 87 90 89 84 80 80 76 78 76 82 88 82 81 81 83 84 73 72 96 82 76 77 80 75 57 44 31 25 30 35 39
19 20 23 22 24 27 34 45 55 67 75 80 84 86 87 81 81 83 78 76 78 83 84 90 93 83 80 68 81 81 82 83 78 80 82 69 62 49 40 37 32 30 34
37 33 28 26 28 29 32 36 42 52 63 71 78 84 80 80 81 82 79 78 77 81 75 79 82 80 78 80 75 71 80 85 86 86 77 73 61 53 47 46 40 31 29
36 41 32 36 37 35 33 32 33 37 46 56 64 71 75 79 82 84 80 77 76 80 80 85 90 86 85 80 76 75 81 86 86 85 78 70 63 56 49 43 37 32 26
25 26 28 28 28 26 22 23 25 30 33 41 51 54 63 72 80 80 81 75 75 77 79 84 88 95 86 85 82 79 82 84 82 83 78 70 61 54 48 43 37 32 19
27 18 24 25 22 17 14 14 19 26 29 32 37 45 53 61 73 77 78 76 74 78 79 81 85 89 86 87 86 84 82 84 84 84 77 66 58 53 48 42 37 27 17
16 10 15 22 16 16 11 8 21 29 29 30 32 38 44 54 65 73 75 73 75 77 74 73 77 81 89 89 88 85 83 84 86 83 76 68 63 57 50 45 33 20 18
18 19 16 20 19 18 20 22 29 35 39 39 36 38 42 51 58 67 72 74 72 72 78 81 81 84 87 88 92 83 84 85 84 81 75 70 65 59 54 45 24 21 25
36 49 58 54 43 44 46 46 48 40 45 56 53 48 49 50 57 61 69 72 70 72 78 79 80 82 85 86 94 86 87 85 83 77 74 71 67 61 55 27 25 30 24
65 61 55 57 58 65 64 63 58 53 53 58 61 61 58 57 59 62 68 69 65 64 73 76 78 79 83 88 88 87 84 86 84 81 74 66 61 58 38 27 30 26 28
64 71 73 66 65 69 72 61 61 60 68 67 69 64 68 67 64 65 68 68 66 64 72 76 77 81 83 87 84 87 84 87 86 81 73 67 64 52 28 33 31 27 38
69 74 70 62 64 68 73 77 72 70 72 69 67 70 73 72 69 64 67 69 70 63 73 75 76 74 78 82 85 87 84 87 82 75 72 68 62 43 26 35 37 41 47
74 67 65 61 58 61 62 61 55 55 58 62 68 71 73 73 71 68 66 70 71 64 70 73 69 70 73 79 84 88 83 80 75 71 69 65 59 30 32 41 46 49 53
62 58 60 63 53 47 49 50 44 45 50 53 55 56 58 64 67 68 65 67 69 64 68 71 67 67 69 74 82 85 79 78 76 71 66 65 54 34 47 50 51 57 65
37 42 46 48 51 53 55 60 62 60 55 49 46 47 48 53 58 58 59 61 63 61 66 68 66 65 65 71 76 74 74 77 74 68 66 67 53 45 58 53 56 62 63
43 41 44 46 45 45 46 48 47 45 42 39 40 38 38 39 41 45 50 53 58 62 62 61 61 61 61 62 65 64 71 72 71 71 71 68 61 71 60 58 59 62 53
49 47 46 43 38 38 39 38 37 36 34 31 30 29 28 28 30 33 37 42 46 48 49 48 49 47 44 47 54 60 69 68 70 68 69 68 65 64 62 66 56 52 53
50 50 48 44 42 40 37 34 32 28 24 21 20 20 20 20 21 23 27 30 32 34 36 36 35 34 39 45 53 57 59 61 64 64 63 68 69 72 72 59 51 48 51
43 46 44 42 38 36 33 30 24 19 15 11 9 9 10 13 15 17 19 20 23 26 29 28 26 30 35 45 54 54 51 54 58 62 66 67 75 73 70 59 55 49 49
40 37 37 37 32 29 25 20 14 9 9 11 12 13 12 12 15 16 14 13 12 11 13 16 19 22 30 39 46 55 62 61 54 57 63 68 70 71 64 60 57 53 51
36 32 32 30 25 18 15 13 14 14 13 13 16 16 19 18 14 12 13 13 10 7 5 7 10 14 19 25 33 39 43 50 55 58 63 66 65 61 60 61 58 55 54
Wind_Direction_500mb
251 244 235 239 235 233 231 229 230 232 229 230 232 234 235 236 238 235 237 236 232 232 238 240 239 240 239 233 220 223 210 206 218 212 193 191 194 195 195 200 201 198 195
253 242 233 235 238 237 236 234 234 234 233 235 236 236 237 237 242 240 237 235 231 230 232 239 238 242 240 223 221 224 210 209 222 213 194 189 204 207 207 208 208 207 205
255 247 234 238 239 238 236 238 239 238 236 235 234 236 238 240 241 241 238 234 232 228 229 234 238 242 236 225 241 226 224 228 218 217 201 183 208 210 215 216 216 214 216
257 252 241 239 249 247 244 241 240 238 237 237 235 238 242 243 247 245 243 238 234 225 229 232 232 241 241 230 231 235 236 229 225 215 209 206 202 180 193 220 219 219 221
262 254 245 240 240 251 247 242 238 238 237 237 237 238 242 245 244 244 243 238 237 226 230 226 236 233 234 230 237 230 231 223 232 233 215 208 209 205 206 202 214 219 223
262 261 242 233 241 239 240 239 238 238 236 236 237 238 242 241 240 243 243 238 236 226 228 226 227 234 231 236 240 242 225 226 231 229 224 220 219 221 211 215 222 218 222
281 265 256 253 250 248 246 242 240 239 239 240 240 241 241 241 241 244 244 239 235 228 228 228 231 232 235 243 238 241 224 228 229 229 225 225 225 238 231 228 211 198 222
282 270 255 251 255 246 243 241 244 241 239 239 241 240 241 240 241 245 246 244 242 233 229 221 224 232 235 229 235 240 237 236 230 226 226 227 230 235 235 229 222 199 215
276 275 264 251 246 245 241 242 248 248 243 242 243 243 241 241 239 246 248 245 243 233 229 231 229 226 227 230 234 237 240 233 229 226 226 227 231 236 230 228 223 218 204
295 273 245 240 235 232 236 247 256 259 254 251 253 253 249 246 243 244 246 246 242 233 228 228 229 226 229 231 232 233 234 231 228 227 224 227 230 227 223 219 215 217 220
316 285 246 236 219 221 234 258 269 266 264 259 259 258 254 249 246 244 244 244 243 238 230 230 233 230 235 232 229 232 234 231 226 221 223 226 224 220 214 211 210 222 263
332 302 235 230 221 222 227 274 285 269 261 264 263 263 259 254 249 244 244 243 241 238 233 234 235 236 234 232 234 231 234 230 224 220 221 220 216 210 207 206 216 255 233
342 352 334 275 255 250 256 296 305 293 279 267 264 265 265 262 255 248 244 244 241 236 233 236 234 240 235 232 235 232 233 227 224 224 221 218 211 206 204 208 242 235 241
294 299 299 298 280 272 275 284 293 285 286 274 264 262 260 269 265 255 246 243 240 236 234 235 236 242 237 234 235 230 228 225 223 219 217 215 210 205 205 232 245 247 242
299 299 292 287 287 286 284 288 287 284 279 273 265 262 259 262 260 254 248 243 241 239 235 237 240 241 240 240 236 231 227 223 219 214 213 209 203 203 214 259 268 249 240
278 283 287 285 289 291 294 290 285 281 281 277 269 263 260 259 256 252 248 242 240 241 238 238 241 243 243 241 235 230 223 222 218 215 206 200 200 208 245 271 283 250 239
281 284 284 285 290 292 292 290 289 285 279 274 264 264 264 260 259 255 249 243 239 243 240 240 241 245 246 244 233 227 222 222 219 213 207 200 204 214 266 288 291 245 241
281 281 286 289 284 285 285 285 284 283 281 277 272 266 263 259 258 255 249 243 239 245 242 242 244 247 248 245 235 227 220 223 221 216 211 209 210 227 285 295 276 244 246
282 279 280 282 284 287 290 290 288 286 286 282 276 272 265 261 257 254 250 243 238 244 242 242 243 247 249 248 238 226 217 221 221 216 212 211 219 248 291 287 272 255 250
302 298 293 290 291 290 288 287 287 287 284 281 278 273 269 264 259 256 251 246 242 244 244 243 241 245 247 245 238 225 216 216 218 215 216 222 221 259 274 283 276 269 267
307 303 302 301 301 299 297 294 290 288 284 279 274 269 264 259 254 250 246 242 240 241 243 241 243 244 243 238 234 216 214 216 220 225 230 231 231 252 274 283 276 275 276
307 305 305 305 304 303 301 296 293 291 289 282 273 266 259 252 246 242 243 239 238 240 243 244 243 245 248 243 228 202 212 217 224 229 236 234 249 260 271 284 273 275 270
304 302 302 301 302 301 298 297 294 289 283 278 269 259 246 236 230 231 228 229 233 237 240 242 245 243 233 220 207 208 208 218 228 230 238 246 244 258 277 272 271 269 262
295 294 297 295 296 295 292 287 280 277 270 258 238 225 216 208 194 196 200 208 217 222 227 234 233 233 222 207 201 203 211 218 224 233 242 245 254 268 277 272 271 264 261
289 284 286 287 286 287 284 268 249 214 182 160 156 156 155 164 167 164 177 184 196 224 238 236 239 233 222 219 217 211 216 224 231 239 244 252 263 270 271 271 273 269 264
280 277 272 270 275 267 244 220 176 148 143 146 140 138 140 138 145 138 130 126 128 139 168 234 243 227 226 227 229 230 228 236 242 246 253 261 263 263 265 267 264 266 270
Wind_Speed_850mb
53 49 53 61 67 68 72 74 76 78 77 80 80 79 78 78 80 79 80 79 76 70 69 68 63 63 66 62 55 49 48 44 45 44 40 35 34 31 29 27 24 22 18
53 53 51 60 66 72 76 78 80 80 81 82 80 77 76 79 80 75 78 80 86 80 76 78 74 70 67 76 58 61 60 56 51 52 45 28 29 35 35 33 30 26 22
60 50 54 65 69 73 77 77 81 84 83 81 79 76 75 76 81 81 78 82 86 86 82 81 77 75 71 86 56 60 66 58 59 62 39 21 20 39 39 38 34 30 27
46 44 51 58 69 76 77 77 79 85 85 83 85 86 85 82 79 78 77 78 83 87 91 84 80 81 75 78 67 67 75 72 71 70 67 38 32 24 22 41 40 37 32
35 34 38 48 61 61 65 70 78 81 83 87 87 87 88 82 74 73 75 78 79 85 84 84 89 83 86 70 81 73 88 82 76 73 79 59 39 28 22 24 42 45 39
18 21 26 35 44 48 53 58 68 76 80 84 87 90 89 84 80 80 76 78 76 82 88 82 81 81 83 84 73 72 96 82 76 77 80 75 57 44 31 25 30 35 39
19 20 23 22 24 27 34 45 55 67 75 80 84 86 87 81 81 83 78 76 78 83 84 90 93 83 80 68 81 81 82 83 78 80 82 69 62 49 40 37 32 30 34
37 33 28 26 28 29 32 36 42 52 63 71 78 84 80 80 81 82 79 78 77 81 75 79 82 80 78 80 75 71 80 85 86 86 77 73 61 53 47 46 40 31 29
36 41 32 36 37 35 33 32 33 37 46 56 64 71 75 79 82 84 80 77 76 80 80 85 90 86 85 80 76 75 81 86 86 85 78 70 63 56 49 43 37 32 26
25 26 28 28 28 26 22 23 25 30 33 41 51 54 63 72 80 80 81 75 75 77 79 84 88 95 86 85 82 79 82 84 82 83 78 70 61 54 48 43 37 32 19
27 18 24 25 22 17 14 14 19 26 29 32 37 45 53 61 73 77 78 76 74 78 79 81 85 89 86 87 86 84 82 84 84 84 77 66 58 53 48 42 37 27 17
16 10 15 22 16 16 11 8 21 29 29 30 32 38 44 54 65 73 75 73 75 77 74 73 77 81 89 89 88 85 83 84 86 83 76 68 63 57 50 45 33 20 18
18 19 16 20 19 18 20 22 29 35 39 39 36 38 42 51 58 67 72 74 72 72 78 81 81 84 87 88 92 83 84 85 84 81 75 70 65 59 54 45 24 21 25
36 49 58 54 43 44 46 46 48 40 45 56 53 48 49 50 57 61 69 72 70 72 78 79 80 82 85 86 94 86 87 85 83 77 74 71 67 61 55 27 25 30 24
65 61 55 57 58 65 64 63 58 53 53 58 61 61 58 57 59 62 68 69 65 64 73 76 78 79 83 88 88 87 84 86 84 81 74 66 61 58 38 27 30 26 28
64 71 73 66 65 69 72 61 61 60 68 67 69 64 68 67 64 65 68 68 66 64 72 76 77 81 83 87 84 87 84 87 86 81 73 67 64 52 28 33 31 27 38
69 74 70 62 64 68 73 77 72 70 72 69 67 70 73 72 69 64 67 69 70 63 73 75 76 74 78 82 85 87 84 87 82 75 72 68 62 43 26 35 37 41 47
74 67 65 61 58 61 62 61 55 55 58 62 68 71 73 73 71 68 66 70 71 64 70 73 69 70 73 79 84 88 83 80 75 71 69 65 59 30 32 41 46 49 53
62 58 60 63 53 47 49 50 44 45 50 53 55 56 58 64 67 68 65 67 69 64 68 71 67 67 69 74 82 85 79 78 76 71 66 65 54 34 47 50 51 57 65
37 42 46 48 51 53 55 60 62 60 55 49 46 47 48 53 58 58 59 61 63 61 66 68 66 65 65 71 76 74 74 77 74 68 66 67 53 45 58 53 56 62 63
43 41 44 46 45 45 46 48 47 45 42 39 40 38 38 39 41 45 50 53 58 62 62 61 61 61 61 62 65 64 71 72 71 71 71 68 61 71 60 58 59 62 53
49 47 46 43 38 38 39 38 37 36 34 31 30 29 28 28 30 33 37 42 46 48 49 48 49 47 44 47 54 60 69 68 70 68 69 68 65 64 62 66 56 52 53
50 50 48 44 42 40 37 34 32 28 24 21 20 20 20 20 21 23 27 30 32 34 36 36 35 34 39 45 53 57 59 61 64 64 63 68 69 72 72 59 51 48 51
43 46 44 42 38 36 33 30 24 19 15 11 9 9 10 13 15 17 19 20 23 26 29 28 26 30 35 45 54 54 51 54 58 62 66 67 75 73 70 59 55 49 49
40 37 37 37 32 29 25 20 14 9 9 11 12 13 12 12 15 16 14 13 12 11 13 16 19 22 30 39 46 55 62 61 54 57 63 68 70 71 64 60 57 53 51
36 32 32 30 25 18 15 13 14 14 13 13 16 16 19 18 14 12 13 13 10 7 5 7 10 14 19 25 33 39 43 50 55 58 63 66 65 61 60 61 58 55 54
Wind_Direction_850mb
251 244 235 239 235 233 231 229 230 232 229 230 232 234 235 236 238 235 237 236 232 232 238 240 239 240 239 233 220 223 210 206 218 212 193 191 194 195 195 200 201 198 195
253 242 233 235 238 237 236 234 234 234 233 235 236 236 237 237 242 240 237 235 231 230 232 239 238 242 240 223 221 224 210 209 222 213 194 189 204 207 207 208 208 207 205
255 247 234 238 239 238 236 238 239 238 236 235 234 236 238 240 241 241 238 234 232 228 229 234 238 242 236 225 241 226 224 228 218 217 201 183 208 210 215 216 216 214 216
257 252 241 239 249 247 244 241 240 238 237 237 235 238 242 243 247 245 243 238 234 225 229 232 232 241 241 230 231 235 236 229 225 215 209 206 202 180 193 220 219 219 221
262 254 245 240 240 251 247 242 238 238 237 237 237 238 242 245 244 244 243 238 237 226 230 226 236 233 234 230 237 230 231 223 232 233 215 208 209 205 206 202 214 219 223
262 261 242 233 241 239 240 239 238 238 236 236 237 238 242 241 240 243 243 238 236 226 228 226 227 234 231 236 240 242 225 226 231 229 224 220 219 221 211 215 222 218 222
281 265 256 253 250 248 246 242 240 239 239 240 240 241 241 241 241 244 244 239 235 228 228 228 231 232 235 243 238 241 224 228 229 229 225 225 225 238 231 228 211 198 222
282 270 255 251 255 246 243 241 244 241 239 239 241 240 241 240 241 245 246 244 242 233 229 221 224 232 235 229 235 240 237 236 230 226 226 227 230 235 235 229 222 199 215
276 275 264 251 246 245 241 242 248 248 243 242 243 243 241 241 239 246 248 245 243 233 229 231 229 226 227 230 234 237 240 233 229 226 226 227 231 236 230 228 223 218 204
295 273 245 240 235 232 236 247 256 259 254 251 253 253 249 246 243 244 246 246 242 233 228 228 229 226 229 231 232 233 234 231 228 227 224 227 230 227 223 219 215 217 220
316 285 246 236 219 221 234 258 269 266 264 259 259 258 254 249 246 244 244 244 243 238 230 230 233 230 235 232 229 232 234 231 226 221 223 226 224 220 214 211 210 222 263
332 302 235 230 221 222 227 274 285 269 261 264 263 263 259 254 249 244 244 243 241 238 233 234 235 236 234 232 234 231 234 230 224 220 221 220 216 210 207 206 216 255 233
342 352 334 275 255 250 256 296 305 293 279 267 264 265 265 262 255 248 244 244 241 236 233 236 234 240 235 232 235 232 233 227 224 224 221 218 211 206 204 208 242 235 241
294 299 299 298 280 272 275 284 293 285 286 274 264 262 260 269 265 255 246 243 240 236 234 235 236 242 237 234 235 230 228 225 223 219 217 215 210 205 205 232 245 247 242
299 299 292 287 287 286 284 288 287 284 279 273 265 262 259 262 260 254 248 243 241 239 235 237 240 241 240 240 236 231 227 223 219 214 213 209 203 203 214 259 268 249 240
278 283 287 285 289 291 294 290 285 281 281 277 269 263 260 259 256 252 248 242 240 241 238 238 241 243 243 241 235 230 223 222 218 215 206 200 200 208 245 271 283 250 239
281 284 284 285 290 292 292 290 289 285 279 274 264 264 264 260 259 255 249 243 239 243 240 240 241 245 246 244 233 227 222 222 219 213 207 200 204 214 266 288 291 245 241
281 281 286 289 284 285 285 285 284 283 281 277 272 266 263 259 258 255 249 243 239 245 242 242 244 247 248 245 235 227 220 223 221 216 211 209 210 227 285 295 276 244 246
282 279 280 282 284 287 290 290 288 286 286 282 276 272 265 261 257 254 250 243 238 244 242 242 243 247 249 248 238 226 217 221 221 216 212 211 219 248 291 287 272 255 250
302 298 293 290 291 290 288 287 287 287 284 281 278 273 269 264 259 256 251 246 242 244 244 243 241 245 247 245 238 225 216 216 218 215 216 222 221 259 274 283 276 269 267
307 303 302 301 301 299 297 294 290 288 284 279 274 269 264 259 254 250 246 242 240 241 243 241 243 244 243 238 234 216 214 216 220 225 230 231 231 252 274 283 276 275 276
307 305 305 305 304 303 301 296 293 291 289 282 273 266 259 252 246 242 243 239 238 240 243 244 243 245 248 243 228 202 212 217 224 229 236 234 249 260 271 284 273 275 270
304 302 302 301 302 301 298 297 294 289 283 278 269 259 246 236 230 231 228 229 233 237 240 242 245 243 233 220 207 208 208 218 228 230 238 246 244 258 277 272 271 269 262
295 294 297 295 296 295 292 287 280 277 270 258 238 225 216 208 194 196 200 208 217 222 227 234 233 233 222 207 201 203 211 218 224 233 242 245 254 268 277 272 271 264 261
289 284 286 287 286 287 284 268 249 214 182 160 156 156 155 164 167 164 177 184 196 224 238 236 239 233 222 219 217 211 216 224 231 239 244 252 263 270 271 271 273 269 264
280 277 272 270 275 267 244 220 176 148 143 146 140 138 140 138 145 138 130 126 128 139 168 234 243 227 226 227 229 230 228 236 242 246 253 261 263 263 265 267 264 266 270